• In Hungary
  • List of Countries
  • For 7 days
  • Water Temperature
  • Satellite Maps
  • Weather Map
  • News
  • Weather Widgets
  • user-avatar
    Login

    Hourly Weather Nugush

    Today, 25 May, Friday

    Time Temperature Precipitation Wind Pressure Humidity
    00:00 +16°C° 0.2 mm 0 mps 742 mmHg 84%
    01:00 +15°C° 0.2 mm 0 mps 742 mmHg 86%
    02:00 +15°C° 0 mm 0 mps 741 mmHg 87%
    03:00 +15°C° 0 mm 0 mps 741 mmHg 88%
    04:00 +14°C° 0 mm 0 mps 741 mmHg 89%
    05:00 +18°C° 0 mm 1 mps 740 mmHg 85%
    06:00 +19°C° 0 mm 1 mps 740 mmHg 82%
    07:00 +20°C° 0 mm 1 mps 739 mmHg 78%
    08:00 +20°C° 0 mm 2 mps 739 mmHg 73%
    09:00 +21°C° 0 mm 3 mps 739 mmHg 69%
    10:00 +22°C° 0 mm 4 mps 739 mmHg 64%
    11:00 +20°C° 0.4 mm 4 mps 739 mmHg 69%
    12:00 +19°C° 0.4 mm 3 mps 739 mmHg 74%
    13:00 +18°C° 0.4 mm 3 mps 738 mmHg 79%
    14:00 +17°C° 0.6 mm 3 mps 738 mmHg 81%
    15:00 +17°C° 0.6 mm 3 mps 738 mmHg 83%
    16:00 +15°C° 0.6 mm 4 mps 738 mmHg 85%
    17:00 +14°C° 0.3 mm 4 mps 738 mmHg 87%
    18:00 +13°C° 0.3 mm 5 mps 738 mmHg 88%
    19:00 +12°C° 0.3 mm 5 mps 738 mmHg 89%
    20:00 +10°C° 0.5 mm 5 mps 738 mmHg 89%
    21:00 +9°C° 0.5 mm 5 mps 738 mmHg 89%
    22:00 +8°C° 0.5 mm 5 mps 739 mmHg 89%
    23:00 +7°C° 0.1 mm 5 mps 739 mmHg 87%

    Tomorrow, 26 May, Saturday

    Time Temperature Precipitation Wind Pressure Humidity
    00:00 +7°C° 0.1 mm 5 mps 739 mmHg 86%
    01:00 +6°C° 0.1 mm 5 mps 739 mmHg 84%
    02:00 +5°C° 0 mm 5 mps 740 mmHg 83%
    03:00 +5°C° 0 mm 5 mps 740 mmHg 82%
    04:00 +3°C° 0 mm 5 mps 740 mmHg 81%
    05:00 +4°C° 0 mm 6 mps 741 mmHg 78%
    06:00 +5°C° 0 mm 6 mps 741 mmHg 75%
    07:00 +6°C° 0 mm 7 mps 742 mmHg 71%
    08:00 +8°C° 0 mm 7 mps 742 mmHg 64%
    09:00 +9°C° 0 mm 7 mps 743 mmHg 56%
    10:00 +10°C° 0 mm 7 mps 743 mmHg 49%
    11:00 +11°C° 0 mm 7 mps 744 mmHg 46%
    12:00 +11°C° 0 mm 7 mps 744 mmHg 44%
    13:00 +12°C° 0 mm 7 mps 744 mmHg 42%
    14:00 +12°C° 0 mm 7 mps 745 mmHg 42%
    15:00 +12°C° 0 mm 7 mps 745 mmHg 42%
    16:00 +12°C° 0 mm 7 mps 745 mmHg 42%
    17:00 +11°C° 0 mm 6 mps 746 mmHg 46%
    18:00 +10°C° 0 mm 6 mps 746 mmHg 49%
    19:00 +9°C° 0 mm 5 mps 747 mmHg 53%
    20:00 +8°C° 0 mm 5 mps 747 mmHg 56%
    21:00 +6°C° 0 mm 4 mps 748 mmHg 60%
    22:00 +5°C° 0 mm 3 mps 748 mmHg 63%
    23:00 +4°C° 0 mm 3 mps 749 mmHg 65%

    Day after tomorrow, 27 May, Sunday

    Time Temperature Precipitation Wind Pressure Humidity
    00:00 +4°C° 0 mm 2 mps 749 mmHg 68%
    01:00 +3°C° 0 mm 2 mps 749 mmHg 70%
    02:00 +3°C° 0 mm 2 mps 750 mmHg 71%
    03:00 +3°C° 0 mm 2 mps 750 mmHg 72%
    04:00 +3°C° 0 mm 1 mps 750 mmHg 73%
    05:00 +4°C° 0 mm 2 mps 750 mmHg 67%
    06:00 +6°C° 0 mm 2 mps 751 mmHg 61%
    07:00 +8°C° 0 mm 2 mps 751 mmHg 55%
    08:00 +10°C° 0 mm 2 mps 751 mmHg 51%
    09:00 +12°C° 0 mm 3 mps 751 mmHg 47%
    10:00 +13°C° 0 mm 4 mps 750 mmHg 43%
    11:00 +14°C° 0 mm 4 mps 750 mmHg 44%
    12:00 +15°C° 0 mm 4 mps 750 mmHg 44%
    13:00 +16°C° 0 mm 5 mps 749 mmHg 45%
    14:00 +17°C° 0 mm 5 mps 749 mmHg 46%
    15:00 +17°C° 0 mm 5 mps 748 mmHg 48%
    16:00 +17°C° 0 mm 6 mps 747 mmHg 50%
    17:00 +16°C° 0 mm 5 mps 747 mmHg 55%
    18:00 +16°C° 0 mm 5 mps 747 mmHg 60%
    19:00 +15°C° 0 mm 4 mps 746 mmHg 64%
    20:00 +14°C° 0 mm 4 mps 746 mmHg 66%
    21:00 +13°C° 0 mm 5 mps 745 mmHg 68%
    22:00 +10°C° 0 mm 5 mps 745 mmHg 70%
    23:00 +10°C° 0 mm 5 mps 744 mmHg 70%

    28 May, Monday

    Time Temperature Precipitation Wind Pressure Humidity
    00:00 +10°C° 0 mm 5 mps 743 mmHg 70%
    01:00 +10°C° 0 mm 6 mps 742 mmHg 70%
    02:00 +10°C° 0.6 mm 6 mps 742 mmHg 75%
    03:00 +10°C° 0.6 mm 6 mps 741 mmHg 80%
    04:00 +9°C° 0.6 mm 7 mps 740 mmHg 85%
    05:00 +9°C° 0.8 mm 7 mps 739 mmHg 85%
    06:00 +10°C° 0.8 mm 7 mps 739 mmHg 85%
    07:00 +10°C° 0.8 mm 8 mps 738 mmHg 85%
    08:00 +9°C° 1.3 mm 7 mps 739 mmHg 86%
    09:00 +8°C° 1.3 mm 6 mps 739 mmHg 87%
    10:00 +7°C° 1.3 mm 6 mps 739 mmHg 88%
    11:00 +9°C° 0.2 mm 6 mps 739 mmHg 79%
    12:00 +10°C° 0.2 mm 5 mps 739 mmHg 70%
    13:00 +13°C° 0.2 mm 5 mps 740 mmHg 61%
    14:00 +11°C° 0.3 mm 6 mps 740 mmHg 61%
    15:00 +11°C° 0.3 mm 6 mps 740 mmHg 60%
    16:00 +11°C° 0.3 mm 6 mps 740 mmHg 60%
    17:00 +10°C° 0.2 mm 6 mps 740 mmHg 64%
    18:00 +9°C° 0.2 mm 5 mps 740 mmHg 67%
    19:00 +8°C° 0.2 mm 5 mps 740 mmHg 71%
    20:00 +6°C° 0 mm 4 mps 741 mmHg 74%
    21:00 +5°C° 0 mm 4 mps 741 mmHg 77%
    22:00 +3°C° 0 mm 3 mps 741 mmHg 81%
    23:00 +3°C° 0 mm 3 mps 741 mmHg 82%

    29 May, Tuesday

    Time Temperature Precipitation Wind Pressure Humidity
    00:00 +2°C° 0 mm 3 mps 742 mmHg 83%
    01:00 +1°C° 0 mm 3 mps 742 mmHg 84%
    02:00 +1°C° 0 mm 3 mps 742 mmHg 85%
    03:00 0°C° 0 mm 3 mps 742 mmHg 86%
    04:00 0°C° 0 mm 3 mps 742 mmHg 87%
    05:00 +1°C° 0 mm 3 mps 742 mmHg 80%
    06:00 +3°C° 0 mm 4 mps 742 mmHg 73%
    07:00 +3°C° 0 mm 5 mps 742 mmHg 67%
    08:00 +5°C° 0.1 mm 5 mps 742 mmHg 63%
    09:00 +5°C° 0.1 mm 6 mps 742 mmHg 60%
    10:00 +6°C° 0.1 mm 7 mps 742 mmHg 57%
    11:00 +6°C° 0.2 mm 7 mps 742 mmHg 56%
    12:00 +8°C° 0.2 mm 7 mps 742 mmHg 56%
    13:00 +8°C° 0.2 mm 7 mps 741 mmHg 55%
    14:00 +8°C° 0.3 mm 7 mps 741 mmHg 57%
    15:00 +8°C° 0.3 mm 7 mps 741 mmHg 58%
    16:00 +8°C° 0.3 mm 7 mps 741 mmHg 60%
    17:00 +8°C° 0.1 mm 6 mps 741 mmHg 63%
    18:00 +7°C° 0.1 mm 5 mps 741 mmHg 65%
    19:00 +7°C° 0.1 mm 3 mps 741 mmHg 68%
    20:00 +5°C° 0 mm 3 mps 742 mmHg 74%
    21:00 +4°C° 0 mm 2 mps 742 mmHg 80%
    22:00 +3°C° 0 mm 1 mps 742 mmHg 86%
    23:00 +3°C° 0 mm 1 mps 742 mmHg 87%

    30 May, Wednesday

    Time Temperature Precipitation Wind Pressure Humidity
    00:00 +2°C° 0 mm 1 mps 742 mmHg 87%
    01:00 +2°C° 0 mm 1 mps 742 mmHg 88%
    02:00 +2°C° 0 mm 1 mps 742 mmHg 88%
    03:00 +2°C° 0 mm 1 mps 741 mmHg 88%
    04:00 +2°C° 0 mm 1 mps 741 mmHg 87%
    05:00 +3°C° 0.1 mm 2 mps 741 mmHg 82%
    06:00 +4°C° 0.1 mm 2 mps 740 mmHg 77%
    07:00 +5°C° 0.1 mm 3 mps 740 mmHg 72%
    08:00 +5°C° 0.7 mm 4 mps 739 mmHg 76%
    09:00 +5°C° 0.7 mm 5 mps 738 mmHg 81%
    10:00 +5°C° 0.7 mm 5 mps 737 mmHg 85%
    11:00 +4°C° 0.4 mm 6 mps 736 mmHg 88%
    12:00 +4°C° 0.4 mm 6 mps 735 mmHg 91%
    13:00 +5°C° 0.4 mm 6 mps 734 mmHg 93%
    14:00 +8°C° 0.3 mm 5 mps 734 mmHg 91%
    15:00 +10°C° 0.3 mm 5 mps 733 mmHg 89%
    16:00 +13°C° 0.3 mm 4 mps 733 mmHg 87%
    17:00 +13°C° 0.1 mm 4 mps 733 mmHg 85%
    18:00 +13°C° 0.1 mm 4 mps 733 mmHg 83%
    19:00 +13°C° 0.1 mm 4 mps 733 mmHg 81%
    20:00 +12°C° 0 mm 3 mps 733 mmHg 84%
    21:00 +10°C° 0 mm 2 mps 733 mmHg 86%
    22:00 +8°C° 0 mm 2 mps 733 mmHg 89%
    23:00 +8°C° 0.4 mm 2 mps 733 mmHg 91%
    Show more